Kentucky Lake Weather Center

Moon Phase Calendar



Kentucky Lake Water Level
Online Cameras

 


      

Current Conditions in Paris
4/16/2024 6:05:49 PM

77°F
Feels Like 77
Clouds
Humidity
60%
Pressure
29.88"
Wind
16.4 mph (S)
Dew Point
62°F
UV Index
0/10 (Low)
Visibility
6 mi

Hourly Forecast

Date & Time Tue, Apr 16
6:00 PM
Tue, Apr 16
7:00 PM
Tue, Apr 16
8:00 PM
Tue, Apr 16
9:00 PM
Tue, Apr 16
10:00 PM
Tue, Apr 16
11:00 PM
Wed, Apr 17
12:00 AM
Wed, Apr 17
1:00 AM
Wed, Apr 17
2:00 AM
Wed, Apr 17
3:00 AM
Wed, Apr 17
4:00 AM
Wed, Apr 17
5:00 AM
Wed, Apr 17
6:00 AM
Wed, Apr 17
7:00 AM
Wed, Apr 17
8:00 AM
Wed, Apr 17
9:00 AM
Wed, Apr 17
10:00 AM
Wed, Apr 17
11:00 AM
Wed, Apr 17
12:00 PM
Wed, Apr 17
1:00 PM
Wed, Apr 17
2:00 PM
Wed, Apr 17
3:00 PM
Wed, Apr 17
4:00 PM
Wed, Apr 17
5:00 PM
Wed, Apr 17
6:00 PM
Wed, Apr 17
7:00 PM
Wed, Apr 17
8:00 PM
Wed, Apr 17
9:00 PM
Wed, Apr 17
10:00 PM
Wed, Apr 17
11:00 PM
Thu, Apr 18
12:00 AM
Thu, Apr 18
1:00 AM
Thu, Apr 18
2:00 AM
Thu, Apr 18
3:00 AM
Thu, Apr 18
4:00 AM
Thu, Apr 18
5:00 AM
Thu, Apr 18
6:00 AM
Thu, Apr 18
7:00 AM
Thu, Apr 18
8:00 AM
Thu, Apr 18
9:00 AM
Thu, Apr 18
10:00 AM
Thu, Apr 18
11:00 AM
Thu, Apr 18
12:00 PM
Thu, Apr 18
1:00 PM
Thu, Apr 18
2:00 PM
Thu, Apr 18
3:00 PM
Thu, Apr 18
4:00 PM
Thu, Apr 18
5:00 PM
Condition
Clouds

Clouds

Clouds

Clouds

Clouds

Rain

Rain

Rain

Rain

Rain

Rain

Rain

Rain

Clouds

Clouds

Clouds

Clouds

Clouds

Clouds

Clouds

Clouds

Clouds

Clouds

Clouds

Clouds

Clouds

Clouds

Clouds

Clouds

Clouds

Clouds

Clouds

Clear

Clear

Clear

Clear

Clear

Clear

Clouds

Clouds

Clouds

Clouds

Clouds

Clouds

Clear

Clouds

Rain

Rain
Temperature 77°F76°F75°F74°F72°F68°F67°F66°F64°F64°F64°F64°F64°F65°F65°F66°F68°F70°F74°F75°F76°F76°F76°F75°F74°F71°F67°F66°F65°F65°F64°F63°F63°F62°F62°F61°F61°F62°F66°F70°F74°F76°F79°F80°F81°F81°F77°F74°F
Feels Like 77°F76°F75°F74°F72°F68°F67°F67°F65°F65°F65°F65°F65°F65°F66°F67°F69°F71°F74°F76°F77°F77°F77°F76°F75°F71°F68°F67°F66°F65°F65°F64°F63°F63°F62°F62°F62°F63°F66°F71°F74°F77°F79°F82°F83°F83°F78°F75°F
Cloudiness 100%100%100%100%100%100%100%99%100%100%99%99%99%99%100%100%100%100%100%100%100%100%100%100%100%100%97%97%100%100%88%72%10%7%6%5%5%4%27%25%30%31%37%32%1%33%36%51%
Visibility 6 mi6 mi6 mi6 mi6 mi6 mi6 mi6 mi2 mi1 mi6 mi6 mi6 mi6 mi6 mi6 mi6 mi6 mi6 mi6 mi6 mi6 mi6 mi6 mi6 mi6 mi6 mi6 mi6 mi6 mi6 mi6 mi6 mi6 mi6 mi6 mi6 mi6 mi6 mi6 mi6 mi6 mi6 mi6 mi6 mi6 mi6 mi6 mi
Precipitation 0%0%0%0%3%100%91%100%100%100%100%100%100%80%0%0%0%0%0%0%0%0%0%0%0%0%0%0%0%0%0%0%0%0%0%0%0%0%0%0%0%0%0%0%40%44%100%100%
Humidity 60%62%64%65%68%82%85%89%96%96%96%95%95%95%95%94%93%90%75%68%67%70%74%76%79%85%94%96%96%96%96%96%96%97%97%97%97%98%93%89%80%70%65%60%59%60%79%85%
Dew Point 62°F62°F62°F61°F61°F62°F62°F63°F63°F63°F63°F63°F63°F63°F64°F65°F66°F67°F65°F64°F65°F66°F67°F67°F67°F66°F65°F65°F64°F64°F63°F62°F62°F61°F61°F61°F60°F62°F64°F67°F67°F66°F66°F66°F65°F66°F70°F69°F
Pressure 29.88"29.88"29.88"29.88"29.85"29.91"29.88"29.91"29.88"29.88"29.91"29.91"29.91"29.91"29.94"29.94"29.94"29.94"29.94"29.94"29.94"29.91"29.91"29.91"29.94"29.94"29.97"30"30"30"30"30"30"30"30.03"30.03"30.03"30.03"30.03"30.03"30"30"29.97"29.94"29.94"29.91"29.91"29.88"
Wind Speed 16.4 mph15.1 mph15.2 mph15.2 mph13.5 mph12.9 mph16.7 mph15.8 mph13.3 mph11.4 mph13.2 mph13.8 mph13.2 mph12.6 mph11.4 mph11.1 mph11.4 mph12.6 mph14.8 mph15 mph14.2 mph13.4 mph12.5 mph11 mph10 mph7.9 mph6.6 mph6.4 mph6 mph6.2 mph6.9 mph4.4 mph2.4 mph1.1 mph2.5 mph3.6 mph3.9 mph4.7 mph5.9 mph7.5 mph10 mph11 mph11.5 mph11.2 mph13.7 mph12.1 mph11.7 mph7.5 mph
Wind
Direction
188°
S
179°
S
177°
S
181°
S
175°
S
191°
S
197°
SSW
207°
SSW
194°
SSW
195°
SSW
194°
SSW
194°
SSW
204°
SSW
203°
SSW
213°
SSW
215°
SW
219°
SW
218°
SW
232°
SW
232°
SW
232°
SW
230°
SW
230°
SW
231°
SW
231°
SW
226°
SW
213°
SSW
211°
SSW
209°
SSW
211°
SSW
209°
SSW
219°
SW
227°
SW
218°
SW
170°
S
171°
S
154°
SSE
147°
SSE
158°
SSE
162°
SSE
175°
S
182°
S
184°
S
188°
S
204°
SSW
208°
SSW
214°
SW
185°
S

Daily Forecast

Date High Low Precip. Humidity
Today
Apr 16

Rain
78 °F
64 °F
100%
62%
Wednesday
Apr 17

Rain
76 °F
64 °F
100%
75%
Thursday
Apr 18

Rain
81 °F
61 °F
100%
65%
Friday
Apr 19

Rain
66 °F
53 °F
100%
78%
Saturday
Apr 20

Clouds
61 °F
46 °F
0%
46%
Sunday
Apr 21

Clouds
57 °F
42 °F
0%
49%
Monday
Apr 22

Clear
62 °F
39 °F
0%
50%
Tuesday
Apr 23

Clouds
68 °F
48 °F
0%
61%
Wednesday
Apr 24

Clouds
67 °F
45 °F
0%
53%
Thursday
Apr 25

Rain
69 °F
51 °F
100%
83%
Friday
Apr 26

Clouds
61 °F
43 °F
0%
57%
Saturday
Apr 27

Clear
70 °F
41 °F
0%
53%
Sunday
Apr 28

Clear
78 °F
51 °F
0%
62%
Monday
Apr 29

Clouds
82 °F
63 °F
0%
64%
Tuesday
Apr 30

Clear
85 °F
64 °F
0%
58%
Wednesday
May 1

Clear
88 °F
66 °F
0%
52%

Temperature 8-14 Day Outlook



Precipitation 8-14 Day Outlook




Quick Links
Kentucky Lake News
Kentucky Lake Photos
Kentucky Lake Videos




About Us
Contact Us
Site Map
Search Site
Advertise With Us
   
www.GoKentuckyLake.com
THE KENTUCKY LAKE WEBSITE

Copyright 2024, Lakes Online
Privacy    |    Legal